Dati Storici

Data ora Umidita' aria (%) Temperatura aria (°C) Rad globale (W/m²) Gonioanemometro (°) Tacoanemometro (m/s) Pioggia (mm)
19-06-2020 18:50 96.5 % 16.522 53.278 2.298 0 0
19-06-2020 18:40 97.6 % 16.831 245.271 6.455 0 0
19-06-2020 18:30 97.6 % 16.541 10.073 2.238 0 0
19-06-2020 18:20 97.7 % 16.145 28.511 4.169 0 0
19-06-2020 18:10 97.6 % 16.624 112.005 1.077 0 0
19-06-2020 18:00 97.6 % 18.138 12.626 2.041 0 0
19-06-2020 17:50 96.9 % 19.418 39.644 8.112 0 0
19-06-2020 17:40 97.7 % 20.829 61.543 0.866 0 0
19-06-2020 17:30 97.6 % 20.7 171.506 5.202 0 0
19-06-2020 17:20 80.7 % 20.214 94.825 3.805 0 0
19-06-2020 17:10 67.8 % 23.058 197.346 4.311 0 0
19-06-2020 17:00 65.5 % 23.549 129.451 3.083 0 0
19-06-2020 16:50 65.8 % 23.615 91.661 3.242 0 0
19-06-2020 16:40 61.7 % 24.612 146.433 1.297 0 0
19-06-2020 16:30 58.7 % 25.139 125.672 3.832 0 0
19-06-2020 16:20 54.7 % 25.558 130.827 4.81 0 0
19-06-2020 16:10 44.8 % 26.444 126.268 2.168 0 0
19-06-2020 16:00 45.2 % 26.444 200.211 0.822 0 0
19-06-2020 15:50 46.6 % 27.043 167.677 0.263 0 0
19-06-2020 15:40 45.2 % 26.986 161.908 1.379 0 0

I dati sono presentati in modo automatico a scopo informativo. In seguito a verifica i dati possono subire modifiche o essere invalidati e non riportati negli archivi definitivi.